Вернуться в каталог

DELTA 1 DEB

АктивенSSO
NORAD 9320·DEBRIS·🇺🇸 United States

Запущен Jan 22, 1975 с Vandenberg Space Force Base

Loading…

Ближайшие Пролёты (ближайшие 24 часа)

TLE

СвежийSource: Space-Track

Эпоха: Sep 14, 2026, 03:57 UTC

1 09320U 75004EX  26257.16481404  .00000313  00000-0  63923-4 0  9994
2 09320  98.4392 327.8201 0052013 227.4126 132.2683 14.67331028583083

Отслеживайте DELTA 1 DEB в реальном времени с AllMySat

Download on the App Store